Погода в Цветном

Россия / Астраханская область     46°11′28″N   48°43′30″E
темп.,
°C
ветер,
м/с
пор.,
м/с
влажн.,
%
обл.,
%
осадки,
мм/ч
давл.,
гПа
погр.,
м
18 апреля, вс
вс1801:00+16ссз2548100 0.0 1020122
04:00+15ссв2562100 0.0 1020215
07:00+13ссв3581100 1.0 1020258
10:00+16св2263100 1.0 1019632
13:00+19юз1250100 0.0 10191450
16:00+17юз2256100 0.1 1018592
19:00+16с0161100 0.1 101862
22:00+14ссз236487 0.1 101838
19 апреля, пн
пн1901:00+14зсз2461100 0.0 1018112
04:00+14сз236497 0.0 101794
07:00+14сз2365100 0.0 101786
10:00+17ююв1153100 0.0 1017497
13:00+20зюз3447100 0.0 10171544
16:00+21зюз2346100 0.0 10161542
19:00+18з3463100 0.1 1016308
22:00+15зюз3576100 0.1 1017171
20 апреля, вт
вт2001:00+14зюз228798 0.1 101776
04:00+14юв1187100 0.1 101646
07:00+14в3485100 0.0 1016195
10:00+18юв6762100 0.0 1016708
13:00+18вюв81155100 0.0 1014769
16:00+19вюв91244100 0.0 1014668
19:00+16в91659100 0.0 1014545
22:00+16в122157100 0.0 1014661
21 апреля, ср
ср2101:00+15вюв132357100 0.0 1013578
04:00+14вюв71460100 0.0 1016713
07:00+12вюв71271100 1.3 1018626
10:00+10вюв81281100 5.5 1019623
13:00+10вюв71089100 4.6 1021511
16:00+13вюв797882 4.9 1022650
19:00+12в51079100 0.2 1022559
22:00+12в4974100 0.3 1023458
22 апреля, чт
чт2201:00+13в3868100 0.0 1022253
04:00+13юв51158100 0.0 1022402
07:00+12ююв5968100 0.9 1024491
10:00+10юв6108293 7.5 1025613
13:00+12в7106399 0.1 1024617
16:00+13в5750100 0.1 1024549
19:00+12всв4858100 0.0 1024306
22:00+11ссв5955100 0.0 1023271